This is the latest recevied weather packets stored in our database for station/object ALTO-WX. If no packets are shown the sender has not sent any weather packets the latest 10 day(s).
| Time | Temp. | Humidity | Pressure | Rain* | Wind** | Luminosity | Snow |
|---|---|---|---|---|---|---|---|
| 1778254255 | 12.22° C | 45% | 980.6 hPa | 0 mm | - | - | - |
| 1778253335 | 11.67° C | 45% | 980.6 hPa | 0 mm | - | - | - |
| 1778252463 | 11.11° C | 45% | 980.6 hPa | 0 mm | - | - | - |
| 1778251535 | 10.56° C | 57% | 980.8 hPa | 0 mm | - | - | - |
| 1778250652 | 10.56° C | 61% | 981 hPa | 0 mm | - | - | - |
| 1778249736 | 10° C | 61% | 981 hPa | 0 mm | - | - | - |
| 1778248870 | 9.44° C | 63% | 980.8 hPa | 0 mm | - | - | - |
| 1778247935 | 8.89° C | 73% | 980.6 hPa | 0 mm | - | - | - |
| 1778247050 | 7.78° C | 73% | 980.6 hPa | 0 mm | - | - | - |
| 1778246135 | 7.22° C | 73% | 980.6 hPa | 0 mm | - | - | - |
| 1778245267 | 6.11° C | 73% | 980.6 hPa | 0 mm | - | - | - |
| 1778244335 | 5.56° C | 84% | 980 hPa | 0 mm | - | - | - |
| 1778243454 | 5.56° C | 82% | 980.4 hPa | 0 mm | - | - | - |
| 1778242535 | 5° C | 82% | 980.4 hPa | 0 mm | - | - | - |
| 1778241674 | 3.89° C | 82% | 980.4 hPa | 0 mm | - | - | - |
| 1778240735 | 2.78° C | 80% | 979.9 hPa | 0 mm | - | - | - |
| 1778239856 | 2.22° C | 77% | 980.6 hPa | 0 mm | - | - | - |
| 1778238934 | 2.22° C | 77% | 980.6 hPa | 0 mm | - | - | - |
| 1778238061 | 1.67° C | 77% | 980.6 hPa | 0 mm | - | - | - |
| 1778237137 | 1.67° C | 74% | 979.8 hPa | 0 mm | - | - | - |
| 1778236254 | 1.67° C | 73% | 980.8 hPa | 0 mm | - | - | - |
| 1778235337 | 2.22° C | 73% | 980.8 hPa | 0 mm | - | - | - |
| 1778234460 | 2.78° C | 73% | 980.8 hPa | 0 mm | - | - | - |
| 1778233536 | 2.78° C | 74% | 980.1 hPa | 0 mm | - | - | - |
| 1778232650 | 2.78° C | 75% | 980.8 hPa | 0 mm | - | - | - |
* Rain latest hour (hover to see other rain measurements)
** Current wind speed in m/s (hover to see current wind gust speed)